Location: *
(50.6089°N, 2.2719°E)
Time: 11:30:20
(UTC+00:00)

STARLINK-36 - Pass Details

Date: 18 October 2019
Orbit: 549 x 551 km, 53.0° (Epoch: 20 November)

Event Time Altitude Azimuth Distance (km) Brightness Sun altitude
Rises 18:32:00 0° 265° (W) 2,716 8.9 -16.3°
Reaches altitude 10° 18:34:15 10° 268° (W) 1,823 7.6 -16.7°
Maximum altitude 18:38:23 66° 351° (N) 605 3.8 -17.4°
Enters shadow 18:40:01 34° 63° (ENE) 916 4.3 -17.6°
